全球星 M035星 (GLOBALSTAR M035)

导读 | 豆包AI

**GLOBALSTAR M035卫星** GLOBALSTAR M035是全球星(Globalstar)系统的低轨通信卫星,1999年7月10日发射。作为全球星第一代星座成员,运行于约1414公里高度轨道,为南北纬70°范围内区域提供卫星通信服务,支持语音与数据传输,助力偏远地区移动通信、资产跟踪等场景的 connectivity,是早期全球卫星通信网络建设的重要组成部分。

Basic Information
目录编号:
25851
目录名称:
GLOBALSTAR M035
国际标识:
1999-037A
轨道中心:
EARTH
卫星名称:
全球星 M035星
卫星全名:
全球星 M035星 (GLOBALSTAR M035)
卫星状态:
在轨 (已飞行9744 天)
发射日期:
1999-07-10 UTC
国别 :
(GLOB)
星等 :
--
Orbit Information
数据来源 国际轨道数据 AOE轨道数据
星历时间 2026-03-13T14:03:18+0800
1天前
查看轨道信息
2026-03-13T11:00:00+0800
1天前
查看轨道信息
半长轴 8516.881km 8516.886km
偏心率 0.0013843 0.0013787
轨道倾角 51.994° 51.992°
近地点辐角 61.529° 61.964°
升交点赤经 174.920° 175.204°
平近点角 310.043° 163.224°
近地点 2126.954km 2127.006km
远地点 2150.534km 2150.492km
周期 130.371分钟 130.371分钟
每日圈数 11.045413 11.045402
Detailed Information
固有亮度:
5
最大亮度:
7.9
平衡模式:
三轴稳定
覆盖范围:
全球
运营商:
全球星公司
运营商所在国:
美国
使用方式:
暂无
Satellite Introduction
全球星星座由48颗卫星加8颗备份星组成。这些卫星分布在8个倾角为52度的圆形轨道平面上,每个轨道平面6颗卫星,另有1 颗备用星。轨道高度约为1414km,传输时延和处理时延小于300ms,整个系统的覆盖区为南北纬70度以内的地区。该卫星已退役。
2D Orbit Map
3D Orbit Map
Orbit Altitude Analysis Chart
Orbit Inclination Analysis Chart
Orbit Comprehensive Analysis Chart
View Comprehensive Chart